Weather History for Toledo, OH

Change the Weather History Date:

Sunday, May 12, 2013

  Actual Average Record
Temperature  
Mean Temperature 40 °F 58 °F  
Max Temperature 50 °F 70 °F 90 °F (1881)
Min Temperature 30 °F 47 °F 30 °F (2013)
Degree Days  
Heating Degree Days 25 8  
Month to date heating degree days 65 108  
Since 1 July heating degree days 6042 6010  
Cooling Degree Days 0 1  
Month to date cooling degree days 6 9  
Year to date cooling degree days 6 17  
Moisture  
Dew Point 27 °F    
Average Humidity 58    
Maximum Humidity 82    
Minimum Humidity 33    
Precipitation  
Precipitation 0.00 in 0.11 in 1.51 in (1970)
Month to date precipitation 0.23 1.31  
Year to date precipitation 12.12 11.10  
Snow  
Snow 0.00 in 0.00 in - ()
Month to date snowfall 0.0 0.1  
Since 1 July snowfall 22.4 37.6  
Snow Depth 0.00 in    
Sea Level Pressure  
Sea Level Pressure 30.01 in    
Wind  
Wind Speed 13 mph (West)    
Max Wind Speed 25 mph    
Max Gust Speed 33 mph    
Visibility 10 miles    
Events      
T = Trace of Precipitation, MM = Missing Value Source: NWS Daily Summary

Daily Weather History Graph

Daily Weather History Graph

Search for Another Location

Airport:

Trip Planner

Search our weather history database for the weather conditions in past years. The results will help you decide how hot, cold, wet, or windy it might be!

Date:

Astronomy

May. 12, 2013 Rise Set
Actual Time 6:18 AM EDT 8:45 PM EDT
Civil Twilight 5:47 AM EDT 9:16 PM EDT
Nautical Twilight 5:08 AM EDT 9:55 PM EDT
Astronomical Twilight 4:25 AM EDT 10:39 PM EDT
Moon 8:12 AM EDT (5/12) 11:11 PM EDT (5/12)
Length of Visible Light 15h 29m
Length of Day
14h 26m
Waxing Crescent, 6% of the Moon is Illuminated
May 12
Waxing Crescent
May 18
First Quarter
May 25
Full
May 31
Last Quarter
Jun 8
New

Hourly Weather History & Observations

Time (EDT) Temp. Windchill Dew Point Humidity Pressure Visibility Wind Dir Wind Speed Gust Speed Precip Events Conditions
12:52 AM 39.0 °F 34.8 °F 32.0 °F 76% 29.96 in 10.0 mi SW 5.8 mph - N/A   Clear
1:52 AM 39.0 °F 32.8 °F 32.0 °F 76% 29.96 in 10.0 mi WSW 9.2 mph - N/A   Clear
2:52 AM 37.9 °F 31.5 °F 32.0 °F 79% 29.95 in 10.0 mi WSW 9.2 mph - N/A   Clear
3:52 AM 37.9 °F 30.9 °F 30.9 °F 76% 29.94 in 10.0 mi WSW 10.4 mph - N/A   Clear
4:52 AM 37.0 °F 30.4 °F 30.9 °F 79% 29.94 in 10.0 mi WSW 9.2 mph - N/A   Clear
5:52 AM 37.0 °F 29.3 °F 30.9 °F 79% 29.94 in 10.0 mi WSW 11.5 mph - N/A   Clear
6:52 AM 37.0 °F 30.4 °F 32.0 °F 82% 29.95 in 10.0 mi West 9.2 mph - N/A   Clear
7:52 AM 39.9 °F 33.4 °F 30.9 °F 70% 29.96 in 10.0 mi WNW 10.4 mph 20.7 mph N/A   Scattered Clouds
8:01 AM 39.2 °F 32.5 °F 30.2 °F 70% 29.95 in 10.0 mi WNW 10.4 mph - N/A   Mostly Cloudy
8:28 AM 41.0 °F 31.9 °F 28.4 °F 61% 29.96 in 10.0 mi WNW 19.6 mph 25.3 mph N/A   Mostly Cloudy
8:52 AM 42.1 °F 34.2 °F 28.0 °F 58% 29.98 in 10.0 mi WNW 16.1 mph 27.6 mph N/A   Scattered Clouds
9:52 AM 42.1 °F 33.1 °F 26.1 °F 53% 29.99 in 10.0 mi West 20.7 mph 29.9 mph N/A   Overcast
10:52 AM 44.1 °F 35.2 °F 25.0 °F 47% 30.00 in 10.0 mi West 23.0 mph 31.1 mph N/A   Overcast
11:52 AM 44.1 °F 36.5 °F 25.0 °F 47% 30.02 in 10.0 mi NW 17.3 mph 27.6 mph N/A   Overcast
12:52 PM 46.0 °F 38.8 °F 24.1 °F 42% 30.02 in 10.0 mi WNW 18.4 mph 27.6 mph N/A   Overcast
1:52 PM 48.9 °F - 24.1 °F 38% 30.02 in 10.0 mi West 18.4 mph 25.3 mph N/A   Mostly Cloudy
2:52 PM 48.9 °F - 24.1 °F 38% 30.03 in 10.0 mi West 20.7 mph 27.6 mph N/A   Overcast
3:52 PM 50.0 °F - 23.0 °F 35% 30.03 in 10.0 mi West 20.7 mph 29.9 mph N/A   Overcast
4:52 PM 48.9 °F - 24.1 °F 38% 30.04 in 10.0 mi WNW 15.0 mph 26.5 mph N/A   Overcast
5:52 PM 46.9 °F - 24.1 °F 41% 30.06 in 10.0 mi West 17.3 mph 28.8 mph N/A   Overcast
6:52 PM 46.0 °F 39.3 °F 23.0 °F 40% 30.07 in 10.0 mi WNW 16.1 mph 27.6 mph N/A   Mostly Cloudy
7:52 PM 45.0 °F 38.2 °F 21.0 °F 39% 30.07 in 10.0 mi WNW 15.0 mph 26.5 mph N/A   Mostly Cloudy
8:52 PM 43.0 °F 37.2 °F 23.0 °F 45% 30.08 in 10.0 mi WNW 10.4 mph - N/A   Partly Cloudy
9:52 PM 41.0 °F 36.4 °F 24.1 °F 51% 30.11 in 10.0 mi WNW 6.9 mph - N/A   Clear
10:52 PM 39.0 °F 36.8 °F 24.1 °F 55% 30.13 in 10.0 mi West 3.5 mph - N/A   Clear
11:52 PM 34.0 °F 31.0 °F 26.1 °F 73% 30.13 in 10.0 mi WSW 3.5 mph - N/A   Clear